This is the latest recevied weather packets stored in our database for station/object N6SPP. If no packets are shown the sender has not sent any weather packets the latest 1 day(s).
| Time | Temp. | Humidity | Pressure | Rain* | Wind** | Luminosity | Snow |
|---|---|---|---|---|---|---|---|
| 1778045928 | 13.33° C | 78% | 1019.9 hPa | 0 mm | 2.68 m/s, 172° | 0 W/m² | - |
| 1778045627 | 13.33° C | 79% | 1019.6 hPa | 0 mm | 3.13 m/s, 159° | 0 W/m² | - |
| 1778045325 | 13.33° C | 79% | 1019.7 hPa | 0 mm | 2.68 m/s, 200° | 0 W/m² | - |
| 1778045023 | 13.33° C | 79% | 1019.7 hPa | 0 mm | 1.34 m/s, 140° | 0 W/m² | - |
| 1778044720 | 13.33° C | 79% | 1019.6 hPa | 0 mm | 2.68 m/s, 212° | 0 W/m² | - |
| 1778044417 | 13.89° C | 79% | 1019.4 hPa | 0 mm | 1.79 m/s, 142° | 0 W/m² | - |
| 1778044114 | 13.89° C | 79% | 1019.3 hPa | 0 mm | 3.13 m/s, 161° | 0 W/m² | - |
| 1778043811 | 13.89° C | 79% | 1019.3 hPa | 0 mm | 1.79 m/s, 167° | 0 W/m² | - |
| 1778043508 | 13.89° C | 78% | 1019.3 hPa | 0 mm | 2.68 m/s, 166° | 0 W/m² | - |
| 1778043205 | 13.89° C | 78% | 1019.2 hPa | 0 mm | 1.79 m/s, 233° | 0 W/m² | - |
| 1778042902 | 13.89° C | 78% | 1019.3 hPa | 0 mm | 3.13 m/s, 208° | 0 W/m² | - |
| 1778042600 | 13.89° C | 79% | 1019.4 hPa | 0 mm | 2.68 m/s, 216° | 0 W/m² | - |
| 1778042296 | 13.89° C | 79% | 1019.2 hPa | 0 mm | 2.24 m/s, 182° | 0 W/m² | - |
| 1778041994 | 13.89° C | 79% | 1019.2 hPa | 0 mm | 1.34 m/s, 223° | 0 W/m² | - |
| 1778041692 | 13.89° C | 79% | 1019.1 hPa | 0 mm | 2.24 m/s, 178° | 0 W/m² | - |
| 1778041391 | 14.44° C | 79% | 1019.1 hPa | 0 mm | 3.58 m/s, 194° | 0 W/m² | - |
| 1778041089 | 14.44° C | 79% | 1018.8 hPa | 0 mm | 4.47 m/s, 189° | 0 W/m² | - |
| 1778040785 | 14.44° C | 79% | 1019 hPa | 0 mm | 1.79 m/s, 189° | 0 W/m² | - |
| 1778040483 | 14.44° C | 78% | 1018.9 hPa | 0 mm | 1.79 m/s, 269° | 0 W/m² | - |
| 1778040180 | 14.44° C | 78% | 1018.7 hPa | 0 mm | 2.68 m/s, 228° | 0 W/m² | - |
| 1778039876 | 14.44° C | 77% | 1018.7 hPa | 0 mm | 3.58 m/s, 224° | 0 W/m² | - |
| 1778039574 | 14.44° C | 77% | 1018.8 hPa | 0 mm | 0.89 m/s, 187° | 0 W/m² | - |
| 1778039271 | 15° C | 77% | 1018.7 hPa | 0 mm | 2.24 m/s, 211° | 0 W/m² | - |
| 1778038968 | 15° C | 76% | 1018.7 hPa | 0 mm | 1.34 m/s, 139° | 0 W/m² | - |
| 1778038664 | 15° C | 76% | 1018.4 hPa | 0 mm | 2.68 m/s, 197° | 0 W/m² | - |
* Rain latest hour (hover to see other rain measurements)
** Current wind speed in m/s (hover to see current wind gust speed)